TimeCEST,TemperatureF,Dew PointF,Humidity,Sea Level PressureIn,VisibilityMPH,Wind Direction,Wind SpeedMPH,Gust SpeedMPH,PrecipitationIn,Events,Conditions,WindDirDegrees,DateUTC
2:00 AM,63,61,89,29.72,16,WSW,8.1,,,,Scattered Clouds,250,2012-10-27 00:00:00
5:30 AM,60.8,59.0,94,29.71,-9999.0,West,3.5,-,N/A,,Clear,270,2012-10-27 03:30:00
6:30 AM,59.0,57.2,94,29.71,6.2,WSW,3.5,-,N/A,,Partly Cloudy,240,2012-10-27 04:30:00
7:00 AM,59.0,59.0,100,29.71,6.2,Variable,1.2,-,N/A,,Partly Cloudy,0,2012-10-27 05:00:00
7:30 AM,60.8,59.0,94,29.71,6.2,Variable,2.3,-,N/A,,Partly Cloudy,0,2012-10-27 05:30:00
8:00 AM,60.8,59.0,94,29.71,6.2,West,3.5,-,N/A,,Partly Cloudy,280,2012-10-27 06:00:00
8:30 AM,60.8,59.0,94,29.74,6.2,WNW,4.6,-,N/A,,Partly Cloudy,290,2012-10-27 06:30:00
9:00 AM,60.8,57.2,88,29.74,6.2,WNW,5.8,-,N/A,,Partly Cloudy,290,2012-10-27 07:00:00
9:30 AM,60.8,57.2,88,29.77,6.2,West,4.6,-,N/A,,Partly Cloudy,270,2012-10-27 07:30:00
10:00 AM,62.6,59.0,88,29.77,6.2,West,4.6,-,N/A,,Partly Cloudy,280,2012-10-27 08:00:00
10:30 AM,62.6,59.0,88,29.77,6.2,West,6.9,-,N/A,,Partly Cloudy,270,2012-10-27 08:30:00
11:00 AM,62.6,59.0,88,29.80,6.2,West,4.6,-,N/A,,Scattered Clouds,280,2012-10-27 09:00:00
11:30 AM,64.4,57.2,77,29.80,6.2,NW,10.4,-,N/A,,Mostly Cloudy,310,2012-10-27 09:30:00
12:00 PM,64.4,57.2,77,29.80,6.2,WNW,9.2,-,N/A,,Mostly Cloudy,290,2012-10-27 10:00:00
12:30 PM,66.2,59.0,78,29.80,6.2,WNW,11.5,-,N/A,,Partly Cloudy,290,2012-10-27 10:30:00
1:00 PM,66.2,59.0,78,29.80,6.2,West,10.4,-,N/A,,Partly Cloudy,280,2012-10-27 11:00:00
2:00 PM,68,59,67,29.79,16,West,12.7,,,,Scattered Clouds,280,2012-10-27 12:00:00
2:00 PM,68.0,59.0,73,29.77,6.2,WNW,11.5,-,N/A,,Partly Cloudy,290,2012-10-27 12:00:00
2:30 PM,68.0,59.0,73,29.77,6.2,West,11.5,-,N/A,,Partly Cloudy,280,2012-10-27 12:30:00
3:00 PM,69.8,57.2,64,29.77,6.2,West,10.4,-,N/A,,Partly Cloudy,270,2012-10-27 13:00:00
3:30 PM,68.0,59.0,73,29.77,6.2,West,10.4,-,N/A,,Partly Cloudy,270,2012-10-27 13:30:00
4:00 PM,68.0,57.2,68,29.74,6.2,West,12.7,-,N/A,,Partly Cloudy,270,2012-10-27 14:00:00
4:30 PM,69.8,59.0,68,29.74,6.2,West,12.7,-,N/A,,Partly Cloudy,270,2012-10-27 14:30:00
5:00 PM,69.8,57.2,64,29.74,6.2,West,12.7,-,N/A,,Partly Cloudy,270,2012-10-27 15:00:00
5:30 PM,69.8,57.2,64,29.74,6.2,West,13.8,-,N/A,,Partly Cloudy,270,2012-10-27 15:30:00
6:00 PM,68.0,57.2,68,29.77,6.2,West,12.7,-,N/A,,Partly Cloudy,260,2012-10-27 16:00:00
6:30 PM,68.0,60.8,78,29.77,6.2,West,10.4,-,N/A,,Partly Cloudy,260,2012-10-27 16:30:00
7:00 PM,66.2,60.8,83,29.77,6.2,WSW,12.7,-,N/A,,Partly Cloudy,250,2012-10-27 17:00:00
7:30 PM,66.2,60.8,83,29.77,6.2,WSW,9.2,-,N/A,,Partly Cloudy,250,2012-10-27 17:30:00
8:00 PM,65,61,83,29.80,16,WSW,6.9,,,,Scattered Clouds,240,2012-10-27 18:00:00
8:00 PM,64.4,60.8,88,29.77,6.2,WSW,6.9,-,N/A,,Partly Cloudy,240,2012-10-27 18:00:00
8:30 PM,64.4,60.8,88,29.80,6.2,WSW,6.9,-,N/A,,Partly Cloudy,240,2012-10-27 18:30:00
9:00 PM,64.4,60.8,88,29.80,6.2,WSW,5.8,-,N/A,,Partly Cloudy,240,2012-10-27 19:00:00
9:30 PM,62.6,60.8,94,29.80,6.2,WSW,5.8,-,N/A,,Partly Cloudy,250,2012-10-27 19:30:00
10:00 PM,62.6,60.8,94,29.80,6.2,WSW,3.5,-,N/A,,Partly Cloudy,250,2012-10-27 20:00:00
10:30 PM,62.6,60.8,94,29.80,6.2,WSW,4.6,-,N/A,,Partly Cloudy,250,2012-10-27 20:30:00
11:00 PM,62.6,60.8,94,29.80,6.2,WSW,5.8,-,N/A,,Partly Cloudy,250,2012-10-27 21:00:00